Location: Riverside
(39.1734°N, 77.8561°W)
Time: 21:31:28
(UTC+00:00)

BEESAT 3 - Pass Details

Date: 01 June 2019
Orbit: 484 x 526 km, 64.9° (Epoch: 16 June)

Event Time Altitude Azimuth Distance (km) Brightness Sun altitude
Rises 05:04:01 0° 313° (NW) 2,663 ? -28.8°
Reaches altitude 10° 05:06:37 10° 297° (WNW) 1,770 ? -28.8°
Enters shadow 05:06:52 11° 294° (WNW) 1,697 ? -28.8°
